IBE04LK LEMD-LEBL

Flight info

Callsign IBE04LK
Flight time 1h 7m
Altitude 30000
Route PINAR N870 PONEN T600 CASPE
Aircraft A320/M-SDE3FGHIRWY/LB1

Departure

Time 2026-05-04 16:29
Airport Adolfo Suárez Madrid–Barajas Airport (LEMD)

Arrival

Time 2026-05-04 17:36
Airport Josep Tarradellas Barcelona-El Prat Airport (LEBL)
Time Latitude Longitude Altitude Speed Heading
2026-05-04 16:01 40.49619 -3.56655 1973 ft 0 kts 271°
2026-05-04 16:22 40.49622 -3.56566 1973 ft 4 kts 239°
2026-05-04 16:23 40.49668 -3.56546 1972 ft 0 kts 180°
2026-05-04 16:26 40.49555 -3.56193 1960 ft 29 kts 91°
2026-05-04 16:26 40.49553 -3.56086 1959 ft 0 kts 91°
2026-05-04 16:27 40.49553 -3.56079 1959 ft 4 kts 91°
2026-05-04 16:28 40.49477 -3.55779 1963 ft 3 kts 143°
2026-05-04 16:28 40.49455 -3.55756 1966 ft 22 kts 141°
2026-05-04 16:29 40.46614 -3.52821 3003 ft 167 kts 137°
2026-05-04 16:30 40.43715 -3.49816 4451 ft 198 kts 139°
2026-05-04 16:31 40.41832 -3.46955 5011 ft 229 kts 110°
2026-05-04 16:31 40.39929 -3.40948 7156 ft 242 kts 110°
2026-05-04 16:32 40.39766 -3.34677 9421 ft 242 kts 58°
2026-05-04 16:33 40.42531 -3.31977 10487 ft 267 kts 12°
2026-05-04 16:33 40.46317 -3.31354 11905 ft 276 kts
2026-05-04 16:34 40.50165 -3.30702 13312 ft 283 kts
2026-05-04 16:34 40.52126 -3.30364 13999 ft 286 kts
2026-05-04 16:35 40.58146 -3.29330 15925 ft 296 kts
2026-05-04 16:35 40.64422 -3.28259 17321 ft 322 kts
2026-05-04 16:36 40.66705 -3.27860 17450 ft 341 kts
2026-05-04 16:36 40.71633 -3.27004 17744 ft 373 kts
2026-05-04 16:37 40.76870 -3.26108 18662 ft 384 kts
2026-05-04 16:37 40.79518 -3.25580 19157 ft 386 kts 15°
2026-05-04 16:37 40.84206 -3.22284 20089 ft 387 kts 45°
2026-05-04 16:38 40.87015 -3.16434 21007 ft 391 kts 73°
2026-05-04 16:39 40.89081 -3.05953 22340 ft 399 kts 75°
2026-05-04 16:39 40.90479 -2.98811 23184 ft 404 kts 75°
2026-05-04 16:40 40.91910 -2.91533 23981 ft 409 kts 76°
2026-05-04 16:40 40.93346 -2.84194 24728 ft 414 kts 76°
2026-05-04 16:41 40.94777 -2.76823 25427 ft 419 kts 76°
2026-05-04 16:41 40.96951 -2.65537 26416 ft 426 kts 76°
2026-05-04 16:42 40.99159 -2.54024 27368 ft 433 kts 76°
2026-05-04 16:43 41.00651 -2.46200 27982 ft 437 kts 76°
2026-05-04 16:43 41.02147 -2.38362 28549 ft 441 kts 76°
2026-05-04 16:43 41.02897 -2.34410 28816 ft 443 kts 76°
2026-05-04 16:44 41.05905 -2.18490 29793 ft 451 kts 76°
2026-05-04 16:45 41.07428 -2.10390 30207 ft 454 kts 76°
2026-05-04 16:46 41.09661 -1.98448 30250 ft 441 kts 77°
2026-05-04 16:46 41.11120 -1.90548 30241 ft 440 kts 77°
2026-05-04 16:47 41.14029 -1.74791 30245 ft 439 kts 77°
2026-05-04 16:48 41.16903 -1.59043 30236 ft 439 kts 77°
2026-05-04 16:49 41.19762 -1.43293 30238 ft 438 kts 77°
2026-05-04 16:50 41.22596 -1.27563 30242 ft 438 kts 77°
2026-05-04 16:51 41.24703 -1.15738 30235 ft 438 kts 77°
2026-05-04 16:52 41.27501 -0.99989 30235 ft 438 kts 77°
2026-05-04 16:53 41.29588 -0.88185 30241 ft 437 kts 77°
2026-05-04 16:54 41.32336 -0.72453 30244 ft 436 kts 78°
2026-05-04 16:55 41.35428 -0.48763 30244 ft 433 kts 73°
2026-05-04 16:56 41.38504 -0.29788 30243 ft 433 kts 107°
2026-05-04 16:57 41.35826 -0.18271 30244 ft 434 kts 107°
2026-05-04 16:58 41.33130 -0.06779 30056 ft 434 kts 107°
2026-05-04 16:58 41.32233 -0.02945 29803 ft 434 kts 107°
2026-05-04 16:59 41.30436 0.04714 29302 ft 434 kts 107°
2026-05-04 17:00 41.27580 0.18674 28064 ft 413 kts 94°
2026-05-04 17:00 41.29004 0.29696 27330 ft 403 kts 74°
2026-05-04 17:01 41.30567 0.36813 26700 ft 399 kts 75°
2026-05-04 17:01 41.32346 0.45008 25917 ft 393 kts 74°
2026-05-04 17:02 41.33616 0.50857 25410 ft 391 kts 74°
2026-05-04 17:02 41.35120 0.57787 24778 ft 388 kts 74°
2026-05-04 17:03 41.35865 0.61216 24458 ft 386 kts 74°
2026-05-04 17:03 41.36607 0.64649 24144 ft 384 kts 74°
2026-05-04 17:03 41.38068 0.71462 23516 ft 381 kts 74°
2026-05-04 17:04 41.39510 0.78207 22897 ft 377 kts 74°
2026-05-04 17:04 41.40942 0.84892 22287 ft 373 kts 74°
2026-05-04 17:05 41.42356 0.91512 21676 ft 370 kts 74°
2026-05-04 17:05 41.43753 0.98085 21071 ft 367 kts 74°
2026-05-04 17:06 41.45133 1.04592 20477 ft 364 kts 74°
2026-05-04 17:06 41.45821 1.07835 20181 ft 362 kts 74°
2026-05-04 17:07 41.47179 1.14256 19414 ft 358 kts 74°
2026-05-04 17:07 41.47625 1.16373 19168 ft 356 kts 74°
2026-05-04 17:07 41.48516 1.20612 18673 ft 354 kts 74°
2026-05-04 17:07 41.49177 1.23761 18306 ft 352 kts 74°
2026-05-04 17:08 41.49835 1.26903 17944 ft 351 kts 74°
2026-05-04 17:08 41.51141 1.33128 17216 ft 347 kts 74°
2026-05-04 17:08 41.51790 1.36221 16854 ft 345 kts 74°
2026-05-04 17:09 41.52423 1.39254 16505 ft 343 kts 74°
2026-05-04 17:09 41.53056 1.42311 16151 ft 341 kts 74°
2026-05-04 17:09 41.53690 1.45397 15795 ft 339 kts 74°
2026-05-04 17:10 41.54671 1.51508 15058 ft 336 kts 85°
2026-05-04 17:10 41.54767 1.60840 13602 ft 335 kts 88°
2026-05-04 17:11 41.54786 1.63973 13209 ft 331 kts 88°
2026-05-04 17:11 41.54804 1.66995 12787 ft 328 kts 88°
2026-05-04 17:11 41.54845 1.73033 11642 ft 322 kts 88°
2026-05-04 17:12 41.54637 1.75978 11253 ft 319 kts 101°
2026-05-04 17:12 41.53624 1.81743 10754 ft 318 kts 101°
2026-05-04 17:13 41.52168 1.89901 10052 ft 281 kts 101°
2026-05-04 17:14 41.50808 1.97465 9480 ft 280 kts 101°
2026-05-04 17:14 41.50452 1.99441 9097 ft 281 kts 101°
2026-05-04 17:14 41.50075 2.01527 8787 ft 280 kts 101°
2026-05-04 17:15 41.49618 2.04042 8296 ft 283 kts 101°
2026-05-04 17:15 41.48668 2.09282 6992 ft 297 kts 101°
2026-05-04 17:16 41.47727 2.14418 6442 ft 272 kts 101°
2026-05-04 17:16 41.46405 2.21617 4761 ft 256 kts 101°
2026-05-04 17:17 41.45994 2.23862 4525 ft 238 kts 101°
2026-05-04 17:17 41.44418 2.29560 4308 ft 233 kts 130°
2026-05-04 17:18 41.43119 2.30836 4208 ft 233 kts 155°
2026-05-04 17:18 41.39901 2.31924 4039 ft 246 kts 172°
2026-05-04 17:19 41.37085 2.29800 3267 ft 251 kts 246°
2026-05-04 17:19 41.35742 2.25552 2718 ft 246 kts 248°
2026-05-04 17:20 41.34382 2.21558 2315 ft 237 kts 247°
2026-05-04 17:20 41.33026 2.17532 1863 ft 230 kts 247°
2026-05-04 17:20 41.32367 2.15626 1872 ft 217 kts 247°
2026-05-04 17:21 41.31015 2.11543 2559 ft 254 kts 248°
2026-05-04 17:21 41.29633 2.07204 3320 ft 256 kts 249°
2026-05-04 17:22 41.28953 2.05011 3706 ft 257 kts 249°
2026-05-04 17:22 41.28270 2.02802 4115 ft 258 kts 247°
2026-05-04 17:23 41.25940 1.96222 5159 ft 264 kts 245°
2026-05-04 17:23 41.25106 1.94049 5353 ft 265 kts 238°
2026-05-04 17:23 41.22344 1.90925 5453 ft 263 kts 195°
2026-05-04 17:24 41.20502 1.90772 5586 ft 263 kts 168°
2026-05-04 17:24 41.16962 1.95130 5310 ft 246 kts 95°
2026-05-04 17:25 41.16773 1.97406 5310 ft 249 kts 92°
2026-05-04 17:25 41.16486 2.02001 5310 ft 250 kts 92°
2026-05-04 17:26 41.16524 2.06569 4891 ft 246 kts 75°
2026-05-04 17:26 41.18116 2.12960 4303 ft 242 kts 63°
2026-05-04 17:27 41.19614 2.16970 4308 ft 243 kts 62°
2026-05-04 17:27 41.21123 2.20977 4308 ft 243 kts 62°
2026-05-04 17:28 41.22641 2.25012 3835 ft 241 kts 62°
2026-05-04 17:29 41.24860 2.30930 3097 ft 238 kts 62°
2026-05-04 17:29 41.27156 2.36417 2603 ft 208 kts 41°
2026-05-04 17:30 41.29830 2.37477 2606 ft 185 kts 351°
2026-05-04 17:31 41.32234 2.36148 2617 ft 190 kts 338°
2026-05-04 17:31 41.35758 2.33714 2606 ft 193 kts 320°
2026-05-04 17:32 41.36931 2.30590 2617 ft 193 kts 278°
2026-05-04 17:33 41.35723 2.25491 2419 ft 195 kts 247°
2026-05-04 17:33 41.35175 2.23880 2190 ft 188 kts 247°
2026-05-04 17:34 41.33676 2.19479 1501 ft 156 kts 248°
2026-05-04 17:34 41.33240 2.18197 1300 ft 149 kts 248°
2026-05-04 17:35 41.31977 2.14493 698 ft 145 kts 248°
2026-05-04 17:35 41.31158 2.12083 330 ft 142 kts 247°
2026-05-04 17:35 41.30750 2.10893 158 ft 141 kts 247°
2026-05-04 17:36 41.30349 2.09717 27 ft 136 kts 247°
2026-05-04 17:36 41.30015 2.08733 22 ft 92 kts 246°
2026-05-04 17:36 41.29817 2.08156 22 ft 54 kts 245°
2026-05-04 17:36 41.29640 2.07882 16 ft 27 kts 187°
2026-05-04 17:37 41.29557 2.07798 16 ft 14 kts 223°
2026-05-04 17:37 41.29545 2.07783 16 ft 0 kts 223°
2026-05-04 17:40 41.29533 2.07769 16 ft 9 kts 220°
2026-05-04 17:40 41.29461 2.07693 16 ft 11 kts 210°
2026-05-04 17:40 41.29354 2.07705 16 ft 15 kts 195°
2026-05-04 17:41 41.29289 2.07632 18 ft 18 kts 229°
2026-05-04 17:41 41.29261 2.07589 18 ft 0 kts 229°
2026-05-04 17:41 41.29256 2.07559 18 ft 10 kts 266°
2026-05-04 17:41 41.29248 2.07410 18 ft 12 kts 272°
2026-05-04 17:42 41.29285 2.07357 17 ft 10 kts 330°
2026-05-04 17:42 41.29303 2.07413 16 ft 13 kts 80°
2026-05-04 17:42 41.29311 2.07579 16 ft 14 kts 159°
2026-05-04 17:42 41.29233 2.07623 18 ft 22 kts 158°
2026-05-04 17:43 41.29141 2.07702 19 ft 12 kts 147°
2026-05-04 17:43 41.29091 2.07733 19 ft 2 kts 156°
2026-05-04 17:43 41.29078 2.07741 20 ft 0 kts 156°